Regional Weather Roundup
Issued by NWS Wakefield, VA

Home | Current Version | Previous Version | Text Only | Print | Product List | Glossary On
Versions: 1 2 3 4 5 6 7 8 9 10 11 12 13 14 15 16 17 18 19 20 21 22 23 24 25 26 27 28
000
ASUS41 KAKQ 172115
RWRAKQ

REGIONAL WEATHER ROUNDUP
NATIONAL WEATHER SERVICE WAKEFIELD VA
500 PM EDT TUE OCT 17 2017

Note: "fair" indicates few or no clouds below 12,000 feet with no
significant weather and/or obstructions to visibility. * = Denotes
station may not report precipitation (e.g., rain,snow,etc.),
thunder or fog.

VAZ042-051-052>054-056-172200-
NORTHERN VIRGINIA

CITY           SKY/WX    TMP DP  RH WIND       PRES   REMARKS
WASH NATIONAL  MOSUNNY   62  31  31 CALM      30.30F
DULLES         SUNNY     62  31  31 W6        30.30S
FORT BELVOIR   SUNNY     62  31  31 CALM      30.30S
QUANTICO       MOSUNNY   62  32  32 CALM      30.31F
FREDERICKSBRG* SUNNY     63  31  30 CALM      30.30S
STAFFORD*      SUNNY     62  30  30 CALM      30.34F
WARRENTON      SUNNY     64  21  19 CALM      30.29F
CULPEPER*      SUNNY     64  27  24 CALM      30.30F
MANASSAS*      SUNNY     63  31  30 CALM      30.30F
LEESBURG*      SUNNY     63  34  34 CALM      30.30F
WINCHESTER     SUNNY     61  34  36 S3        30.28S
FRONT ROYAL*   CLEAR     61  34  36 CALM      30.28S
LURAY*         CLEAR     61  34  36 CALM      30.28F
$$

VAZ048-049-060>072-079>083-172200-
CENTRAL AND SOUTH CENTRAL VIRGINIA

CITY           SKY/WX    TMP DP  RH WIND       PRES   REMARKS
RICHMOND       SUNNY     63  32  31 CALM      30.30F
CHESTERFIELD*  NOT AVBL
PETERSBURG*    SUNNY     62  29  28 NE6       30.31S
HANOVER        SUNNY     62  29  28 CALM      30.31F
TAPPAHANNOCK*  SUNNY     63  20  19 CALM      30.32S
QUINTON*       FAIR      60  34  36 CALM      30.30F
CHARLOTTSVILLE SUNNY     64  35  34 S9        30.29S
GORDONSVILLE*  CLEAR     62  32  32 CALM      30.29F
ORANGE*        SUNNY     61  30  31 CALM      30.30S
LOUISA*        SUNNY     61  30  31 CALM      30.30S
BUMPASS*       FAIR      60  33  35 CALM      30.30S
FARMVILLE*     SUNNY     64  34  32 CALM      30.29F
CREWE*         FAIR      61  32  34 CALM      30.30S
FORT PICKETT*  FAIR      61  32  33 NE6       30.30F
CHASE CITY*    FAIR      62  32  32 NE5       30.30F
CLARKSVILLE*   FAIR      63  32  31 NE5       30.29F
SOUTH HILL*    SUNNY     61  34  36 N3        30.35F
LAWRENCEVILLE* FAIR      61  31  32 NE3       30.29F
EMPORIA*       SUNNY     61  32  33 CALM      30.31F
$$

VAZ088>098-172200-
SOUTHEAST VIRGINIA

CITY           SKY/WX    TMP DP  RH WIND       PRES   REMARKS
NORFOLK        SUNNY     59  43  55 N9        30.30F
VIRGINIA BEACH MOSUNNY   59  42  53 NE9       30.29F
NORFOLK NAVAL  MOSUNNY   58  40  51 NE10      30.32F
WEST POINT*    SUNNY     61  38  42 E7        30.32S
SALUDA*        FAIR      59  38  46 NE3       30.31S
NEWPORT NEWS   SUNNY     58  41  53 NE6       30.31F
LANGLEY AFB    SUNNY     57  41  55 NE8       30.30F
FORT EUSTIS    SUNNY     66  41  40 E6        30.28F
WILLIAMSBURG*  SUNNY     64  45  48 CALM      30.31F
HR EXEC AP*    NOT AVBL
FRANKLIN*        N/A     61  39  44 NE6       30.30S HAZE
US460-WAKEFLD  SUNNY     61  40  45 E3        30.30F
$$

VAZ020-022-025-037-045-172200-
WEST CENTRAL AND SOUTHWEST VIRGINIA

CITY           SKY/WX    TMP DP  RH WIND       PRES   REMARKS
STAUNTON*      SUNNY     61  32  34 CALM      30.30F
WAYNESBORO*    CLEAR     60  32  35 E3        30.28F
HOT SPRINGS VA SUNNY     54  30  38 CALM      30.30F
LYNCHBURG      SUNNY     61  36  39 VRB3      30.29F
DANVILLE       SUNNY     62  36  37 NE7       30.30F
SOUTH BOSTON*  FAIR      64  31  29 NE3       30.29F
MARTINSVILLE   SUNNY     62  36  37 CALM      30.31F
ROANOKE        SUNNY     63  35  35 VRB6      30.30F
BLACKSBURG     SUNNY     62  36  38 NW3       30.31F
DUBLIN*        SUNNY     62  34  35 W5        30.30F
MARION*        SUNNY     62  32  31 CALM      30.30F
HILLSVILLE*    SUNNY     59  29  31 CALM      30.28F
RICHLANDS*     FAIR      61  33  34 CALM      30.29F
WISE*          SUNNY     61  36  39 CALM      30.30F
ABINGDON*      SUNNY     65  35  33 E3        30.28S
$$

MDZ021>025-VAZ099-100-172200-
SOUTHERN MARYLAND AND THE DELMARVA PENINSULA

CITY           SKY/WX    TMP DP  RH WIND       PRES   REMARKS
PATUXENT RIVER MOSUNNY   58  39  49 N6        30.31F
BAY BRIDGE APT SUNNY     59  34  38 CALM      30.30F
LEONARDTOWN    NOT AVBL
DOVER          SUNNY     58  37  45 E5        30.29S
GEORGETOWN     SUNNY     58  36  43 E7        30.31F
EASTON         SUNNY     59  37  44 W5        30.34S
CAMBRIDGE      SUNNY     59  37  44 NW5       30.31S
SALISBURY      SUNNY     60  37  42 N6        30.30F
OCEAN CITY     SUNNY     56  40  55 E7        30.32S
WALLOPS ISLAND SUNNY     57  42  57 E8        30.31S
ACCOMACK*      SUNNY     57  42  56 NW3       30.30F
$$

NCZ012>017-030>032-172200-
NORTH CENTRAL AND EASTERN NORTH CAROLINA

CITY           SKY/WX    TMP DP  RH WIND       PRES   REMARKS
ROANOKE RAPIDS FAIR      61  34  36 NE7       30.29S
RALEIGH        MOSUNNY   63  35  35 NE9       30.29F
ELIZABETH CITY SUNNY     60  44  55 N13       30.29S
AHOSKIE*       SUNNY     61  39  44 NE5       30.30S
EDENTON*       SUNNY     63  42  46 N10       30.29S
CURRITUCK*     SUNNY     59  46  63 N12       30.30F
KILL DEVIL HLS MOSUNNY   59  45  58 N7        30.25F
MANTEO         PTSUNNY  N/A N/A N/A NE14      30.27S
CAPE HATTERAS  CLOUDY    62  50  64 NE10G22   30.24S
TARBORO*       NOT AVBL
GOLDSBORO      SUNNY     65  38  37 N10       30.25F
WASHINGTON     SUNNY     64  42  46 NE7       30.28R
GREENVILLE     SUNNY     64  39  39 NE12      30.28S
NEW BERN       CLOUDY    62  46  55 NE7       30.27F
WILMINGTON     CLOUDY    62  44  51 NE12      30.25F
$$

VAZ048-172200-
ELSEWHERE

CITY           SKY/WX    TMP DP  RH WIND       PRES   REMARKS
HARRISBURG PA  SUNNY     61  38  42 CALM      30.26F
BALTIMORE      MOSUNNY   61  31  32 CALM      30.29F
ANNAPOLIS      SUNNY     59  42  53 SE7       30.30F
ANDREWS AFB    SUNNY     60  31  33 CALM      30.28F
PHILADELPHIA   SUNNY     61  31  32 SW7       30.28F
HENDERSON NC   SUNNY     59  31  34 NE5       30.29F
GREENSBORO     MOSUNNY   61  38  42 E6        30.28F
ROCKY MOUNT    SUNNY     64  39  39 NE10      30.28F
$$

VAZ100-172200-
MARINE

STATION/POSITION TIME  TEMP    WIND        PRES    WAVE   SWELL
                       AIR SEA DIR/SP/G            HT/PER HT/PER
                 (UTC) (F)     (DEG/KT/KT) (MB)    (FT/S) (FT/S)
BRANDYWINE LGT   2048   60     310/  2/  3 1026.5F
CAPE MAY NJ      2048   55 65  230/  4/  4 1025.7F
LEWES DE         2048   54 63  110/  2/  3 1026.2F
15NM E FENWICK I 2050   56 68  360/ 10/ 12 1026.5F   4/ 6   3/ 6
OCEAN-CITY-INLET 2048   56 66   70/  5/  7 1026.9F
WACHAPREAGUE VA  2048   58 65  340/  4/  5 1026.1F
THOMAS POINT MD  2100   57 68  130/  4/  5   N/A
GOOSES REEF MD   2050   59      60/  4/  6 1028.5F
COVE POINT MD    2048   56      10/  3/  6 1027.1F
SOLOMONS ISLAND  2048   57 70  120/  5/  7 1025.9F
BISHOPS HEAD MD  2048   59 62  210/  3/  4 1026.5F
PINEY POINT MD   2042          160/  3/  4   N/A
POTOMAC MD       2050   58      40/  8/ 10 1026.0F
CAMBRIDGE MD     2048   60 67              1027.0F
LEWISETTA VA     2048   58 64   10/  3/  5 1026.3F
RAPPAHANNOCK LGT 2042           20/  8/ 10 1027.0F
STINGRAY PT      2050   57      50/  8/ 12 1026.9F
YORK RVR RNG VA  2048   56      40/ 11/ 14 1026.7F
YORKTOWN VA      2048   58 71   50/  7/ 12 1025.9F
JAMESTOWN VA     2050           70/  6/  8   N/A
DOMINION TERM VA 2048   58      40/  5/  8 1026.4F
KIPTOPEKE VA     2042      68  350/ 12/ 14   N/A
CAPE HENRY VA    2048   57      20/  9/ 12   N/A
WILLOUBY STN VA  2048   56      20/ 11/ 13 1026.1F
S CRANEY ISL VA  2048   57      30/ 10/ 12 1026.1F
CAPE HENRY BUOY  2030      70                N/A     5/ 6   2/11
1ST LANDING BUOY 2050   57                 1026.1F
CAPE CHARLES BUO 2051      70                N/A     4/ 7   2/11
64NM E OF VA BCH 2050   60 67   10/ 16/ 21 1024.7F   6/ 8   3/ 8
DUCK PIER NC     2048   60 69   10/ 16/ 20 1024.3F
44100 DUCK FRF   2005      71                N/A     6/ 7   2/11
44056 DUCK FRF   2030      71                N/A     5/ 7   2/11
OREGON INLET NC  2042   61 66   10/ 11/ 19 1024.3F
HATTERAS NC      2048   61 69   30/ 14/ 24 1023.9S
DIAMOND SHLS NC  2050   65 81   20/ 19/ 25 1022.7F   8/10   5/10
CAPE LOOKOUT NC  2100   60      20/ 15/ 19 1024.2R
$$




USA.gov is the U.S. government's official web portal to all federal, state and local government web resources and services.